Location: Marcé
(47.5801°N, 0.3280°W)
Time: 03:21:56
(UTC+01:00)

deb Explorer IX - Pass Details

Date: 03 December 2021
Orbit: 544 x 1082 km, 38.8° (Epoch: 19 January)

Event Time Altitude Azimuth Distance (km) Brightness Sun altitude
Rises 11:28:26 0° 220° (SW) 2,985 ? 17.8°
Reaches altitude 10° 11:31:41 10° 199° (SSW) 1,979 ? 18.0°
Maximum altitude 11:34:24 16° 161° (SSE) 1,565 ? 18.2°
Drops below altitude 10° 11:37:02 10° 123° (ESE) 1,867 ? 18.3°
Sets 11:39:55 0° 101° (E) 2,718 ? 18.4°
